TimeCDT,TemperatureF,Dew PointF,Humidity,Sea Level PressureIn,VisibilityMPH,Wind Direction,Wind SpeedMPH,Gust SpeedMPH,PrecipitationIn,Events,Conditions,WindDirDegrees,DateUTC
12:53 AM,80.1,72.0,76,30.07,10.0,SSE,5.8,-,N/A,,Clear,160,2012-10-05 05:53:00
1:53 AM,79.0,73.0,82,30.06,10.0,SSE,4.6,-,N/A,,Clear,160,2012-10-05 06:53:00
3:53 AM,79.0,73.0,82,30.05,10.0,SSE,8.1,-,N/A,,Partly Cloudy,160,2012-10-05 08:53:00
4:53 AM,79.0,72.0,79,30.05,10.0,SSE,5.8,-,N/A,,Clear,160,2012-10-05 09:53:00
5:53 AM,78.1,71.1,79,30.06,10.0,SSE,5.8,-,N/A,,Clear,150,2012-10-05 10:53:00
6:53 AM,79.0,70.0,74,30.07,10.0,SSE,6.9,-,N/A,,Clear,150,2012-10-05 11:53:00
7:53 AM,79.0,71.1,77,30.08,10.0,SSE,5.8,-,N/A,,Partly Cloudy,160,2012-10-05 12:53:00
8:53 AM,81.0,71.1,72,30.09,10.0,SSE,10.4,-,N/A,,Clear,150,2012-10-05 13:53:00
9:53 AM,82.9,70.0,65,30.10,10.0,SSE,9.2,-,N/A,,Clear,160,2012-10-05 14:53:00
10:53 AM,84.9,71.1,63,30.10,10.0,SSE,10.4,-,N/A,,Partly Cloudy,150,2012-10-05 15:53:00
11:53 AM,86.0,70.0,59,30.10,10.0,SSE,8.1,16.1,N/A,,Clear,150,2012-10-05 16:53:00
12:53 PM,87.1,70.0,57,30.08,10.0,SE,10.4,16.1,N/A,,Clear,140,2012-10-05 17:53:00
1:53 PM,87.1,70.0,57,30.05,10.0,SE,12.7,-,N/A,,Clear,130,2012-10-05 18:53:00
2:53 PM,86.0,70.0,59,30.02,10.0,SE,12.7,-,N/A,,Clear,130,2012-10-05 19:53:00
3:53 PM,86.0,69.1,57,30.00,10.0,SE,9.2,-,N/A,,Clear,130,2012-10-05 20:53:00
4:53 PM,84.9,69.1,59,29.99,10.0,SE,9.2,-,N/A,,Clear,140,2012-10-05 21:53:00
5:53 PM,82.9,68.0,60,29.98,10.0,SE,5.8,-,N/A,,Clear,140,2012-10-05 22:53:00
6:53 PM,80.1,68.0,67,29.98,10.0,SE,6.9,-,N/A,,Clear,140,2012-10-05 23:53:00
7:53 PM,79.0,68.0,69,29.98,10.0,SE,9.2,-,N/A,,Clear,140,2012-10-06 00:53:00
8:53 PM,79.0,68.0,69,29.99,10.0,SE,9.2,-,N/A,,Clear,140,2012-10-06 01:53:00
9:53 PM,79.0,68.0,69,30.00,10.0,SE,10.4,-,N/A,,Clear,140,2012-10-06 02:53:00
10:53 PM,79.0,68.0,69,30.00,10.0,SSE,5.8,-,N/A,,Clear,160,2012-10-06 03:53:00
11:53 PM,75.9,69.1,79,29.98,10.0,SSE,8.1,-,N/A,,Clear,160,2012-10-06 04:53:00